When you browse on this site, cookies collect data to enhance your experience and personalize the content and advertising you see.
Visit our Privacy Policy to learn more. By continuing to use the site, you agree to this use of cookies and data.
  • In Romania
  • List of Countries
  • For 7 days
  • Water Temperature
  • Weather Map
  • Weather Widgets
  • user-avatar
    Login

    Hourly Weather Byala

    Today, 20 September, Friday

    Time Temperature Precipitation Wind Pressure Humidity
    00:00 +14°C° 1.7 mm 5 mps 754 mmHg 83%
    01:00 +13°C° 1.7 mm 5 mps 754 mmHg 86%
    02:00 +11°C° 1.7 mm 6 mps 753 mmHg 90%
    03:00 +11°C° 3.4 mm 6 mps 753 mmHg 90%
    04:00 +11°C° 3.4 mm 7 mps 754 mmHg 90%
    05:00 +11°C° 3.4 mm 8 mps 754 mmHg 90%
    06:00 +11°C° 2.1 mm 8 mps 754 mmHg 90%
    07:00 +11°C° 2.1 mm 8 mps 754 mmHg 89%
    08:00 +11°C° 2.1 mm 8 mps 754 mmHg 89%
    09:00 +11°C° 0.6 mm 8 mps 754 mmHg 86%
    10:00 +12°C° 0.6 mm 8 mps 754 mmHg 82%
    11:00 +13°C° 0.6 mm 8 mps 755 mmHg 79%
    12:00 +15°C° 0.1 mm 7 mps 755 mmHg 70%
    13:00 +16°C° 0.1 mm 7 mps 755 mmHg 60%
    14:00 +17°C° 0.1 mm 6 mps 755 mmHg 51%
    15:00 +17°C° 0 mm 6 mps 755 mmHg 48%
    16:00 +17°C° 0 mm 5 mps 755 mmHg 45%
    17:00 +17°C° 0 mm 5 mps 755 mmHg 41%
    18:00 +17°C° 0 mm 4 mps 755 mmHg 43%
    19:00 +15°C° 0 mm 4 mps 756 mmHg 45%
    20:00 +13°C° 0 mm 3 mps 756 mmHg 47%
    21:00 +13°C° 0 mm 3 mps 756 mmHg 46%
    22:00 +12°C° 0 mm 3 mps 756 mmHg 46%
    23:00 +12°C° 0 mm 3 mps 757 mmHg 46%

    Tomorrow, 21 September, Saturday

    Time Temperature Precipitation Wind Pressure Humidity
    00:00 +12°C° 0 mm 3 mps 757 mmHg 47%
    01:00 +11°C° 0 mm 3 mps 757 mmHg 48%
    02:00 +11°C° 0 mm 4 mps 757 mmHg 48%
    03:00 +10°C° 0 mm 4 mps 757 mmHg 50%
    04:00 +10°C° 0 mm 4 mps 757 mmHg 52%
    05:00 +10°C° 0 mm 4 mps 758 mmHg 54%
    06:00 +11°C° 0 mm 4 mps 758 mmHg 51%
    07:00 +12°C° 0 mm 4 mps 758 mmHg 49%
    08:00 +13°C° 0 mm 4 mps 758 mmHg 47%
    09:00 +14°C° 0 mm 4 mps 759 mmHg 43%
    10:00 +17°C° 0 mm 4 mps 759 mmHg 39%
    11:00 +18°C° 0 mm 4 mps 759 mmHg 36%
    12:00 +19°C° 0 mm 3 mps 759 mmHg 35%
    13:00 +19°C° 0 mm 3 mps 758 mmHg 35%
    14:00 +19°C° 0 mm 3 mps 758 mmHg 34%
    15:00 +19°C° 0 mm 3 mps 758 mmHg 38%
    16:00 +18°C° 0 mm 3 mps 758 mmHg 41%
    17:00 +17°C° 0 mm 4 mps 758 mmHg 44%
    18:00 +15°C° 0 mm 4 mps 758 mmHg 49%
    19:00 +14°C° 0 mm 3 mps 758 mmHg 54%
    20:00 +13°C° 0 mm 3 mps 758 mmHg 59%
    21:00 +13°C° 0 mm 3 mps 758 mmHg 60%
    22:00 +12°C° 0 mm 3 mps 758 mmHg 61%
    23:00 +13°C° 0 mm 2 mps 758 mmHg 62%

    Day after tomorrow, 22 September, Sunday

    Time Temperature Precipitation Wind Pressure Humidity
    00:00 +13°C° 0 mm 2 mps 758 mmHg 63%
    01:00 +13°C° 0 mm 2 mps 758 mmHg 65%
    02:00 +13°C° 0 mm 1 mps 758 mmHg 66%
    03:00 +12°C° 0 mm 1 mps 757 mmHg 67%
    04:00 +12°C° 0 mm 1 mps 757 mmHg 68%
    05:00 +12°C° 0 mm 1 mps 757 mmHg 69%
    06:00 +13°C° 0 mm 1 mps 757 mmHg 65%
    07:00 +14°C° 0 mm 1 mps 757 mmHg 61%
    08:00 +16°C° 0 mm 1 mps 757 mmHg 57%
    09:00 +17°C° 0 mm 2 mps 757 mmHg 50%
    10:00 +19°C° 0 mm 2 mps 757 mmHg 44%
    11:00 +20°C° 0 mm 2 mps 757 mmHg 38%
    12:00 +20°C° 0 mm 2 mps 757 mmHg 38%
    13:00 +21°C° 0 mm 3 mps 756 mmHg 38%
    14:00 +21°C° 0 mm 3 mps 756 mmHg 38%
    15:00 +20°C° 0 mm 3 mps 755 mmHg 41%
    16:00 +19°C° 0 mm 4 mps 755 mmHg 45%
    17:00 +19°C° 0 mm 4 mps 755 mmHg 48%
    18:00 +17°C° 0 mm 4 mps 755 mmHg 54%
    19:00 +16°C° 0 mm 3 mps 755 mmHg 60%
    20:00 +14°C° 0 mm 3 mps 755 mmHg 66%
    21:00 +14°C° 0 mm 3 mps 755 mmHg 68%
    22:00 +14°C° 0 mm 3 mps 755 mmHg 70%
    23:00 +13°C° 0 mm 3 mps 755 mmHg 72%

    23 September, Monday

    Time Temperature Precipitation Wind Pressure Humidity
    00:00 +14°C° 0 mm 2 mps 755 mmHg 74%
    01:00 +14°C° 0 mm 2 mps 754 mmHg 75%
    02:00 +14°C° 0 mm 2 mps 754 mmHg 77%
    03:00 +13°C° 0 mm 2 mps 754 mmHg 79%
    04:00 +13°C° 0 mm 2 mps 754 mmHg 80%
    05:00 +13°C° 0 mm 2 mps 754 mmHg 82%
    06:00 +14°C° 0 mm 2 mps 754 mmHg 76%
    07:00 +15°C° 0 mm 2 mps 754 mmHg 70%
    08:00 +17°C° 0 mm 2 mps 753 mmHg 64%
    09:00 +18°C° 0 mm 3 mps 753 mmHg 59%
    10:00 +20°C° 0 mm 3 mps 753 mmHg 53%
    11:00 +21°C° 0 mm 4 mps 753 mmHg 47%
    12:00 +22°C° 0 mm 4 mps 753 mmHg 49%
    13:00 +22°C° 0 mm 5 mps 752 mmHg 50%
    14:00 +22°C° 0 mm 5 mps 751 mmHg 51%
    15:00 +21°C° 0 mm 5 mps 751 mmHg 55%
    16:00 +21°C° 0 mm 5 mps 751 mmHg 59%
    17:00 +20°C° 0 mm 6 mps 750 mmHg 63%
    18:00 +19°C° 0 mm 5 mps 750 mmHg 68%
    19:00 +17°C° 0 mm 5 mps 750 mmHg 74%
    20:00 +16°C° 0 mm 5 mps 750 mmHg 79%
    21:00 +16°C° 0 mm 5 mps 750 mmHg 81%
    22:00 +16°C° 0 mm 5 mps 750 mmHg 84%
    23:00 +16°C° 0 mm 5 mps 749 mmHg 86%

    24 September, Tuesday

    Time Temperature Precipitation Wind Pressure Humidity
    00:00 +17°C° 0 mm 4 mps 749 mmHg 87%
    01:00 +17°C° 0 mm 4 mps 749 mmHg 88%
    02:00 +15°C° 0 mm 4 mps 749 mmHg 88%
    03:00 +15°C° 0 mm 4 mps 748 mmHg 85%
    04:00 +16°C° 0 mm 3 mps 748 mmHg 81%
    05:00 +16°C° 0 mm 3 mps 747 mmHg 78%
    06:00 +17°C° 0 mm 3 mps 747 mmHg 72%
    07:00 +18°C° 0 mm 3 mps 747 mmHg 67%
    08:00 +19°C° 0 mm 3 mps 746 mmHg 61%
    09:00 +20°C° 0 mm 3 mps 746 mmHg 57%
    10:00 +22°C° 0 mm 3 mps 746 mmHg 52%
    11:00 +23°C° 0 mm 4 mps 746 mmHg 47%
    12:00 +25°C° 0 mm 4 mps 746 mmHg 46%
    13:00 +26°C° 0 mm 4 mps 746 mmHg 46%
    14:00 +27°C° 0 mm 4 mps 745 mmHg 45%
    15:00 +25°C° 0 mm 3 mps 745 mmHg 52%
    16:00 +24°C° 0 mm 3 mps 745 mmHg 59%
    17:00 +23°C° 0 mm 2 mps 744 mmHg 66%
    18:00 +21°C° 0.1 mm 3 mps 745 mmHg 70%
    19:00 +20°C° 0.1 mm 3 mps 745 mmHg 74%
    20:00 +20°C° 0.1 mm 3 mps 745 mmHg 79%
    21:00 +19°C° 0.1 mm 3 mps 745 mmHg 80%
    22:00 +19°C° 0.1 mm 3 mps 746 mmHg 81%
    23:00 +19°C° 0.1 mm 3 mps 746 mmHg 83%

    25 September, Wednesday

    Time Temperature Precipitation Wind Pressure Humidity
    00:00 +19°C° 0 mm 3 mps 746 mmHg 82%
    01:00 +18°C° 0 mm 3 mps 746 mmHg 82%
    02:00 +18°C° 0 mm 3 mps 745 mmHg 82%
    03:00 +18°C° 0 mm 4 mps 746 mmHg 79%
    04:00 +17°C° 0 mm 4 mps 746 mmHg 77%
    05:00 +16°C° 0 mm 5 mps 746 mmHg 75%
    06:00 +16°C° 0 mm 5 mps 746 mmHg 74%
    07:00 +17°C° 0 mm 6 mps 746 mmHg 74%
    08:00 +17°C° 0 mm 6 mps 747 mmHg 73%
    09:00 +19°C° 0 mm 6 mps 747 mmHg 69%
    10:00 +21°C° 0 mm 6 mps 747 mmHg 64%
    11:00 +22°C° 0 mm 6 mps 747 mmHg 60%
    12:00 +22°C° 0 mm 6 mps 747 mmHg 58%
    13:00 +23°C° 0 mm 6 mps 747 mmHg 57%
    14:00 +23°C° 0 mm 6 mps 747 mmHg 56%
    15:00 +23°C° 0 mm 5 mps 747 mmHg 58%
    16:00 +22°C° 0 mm 5 mps 747 mmHg 59%
    17:00 +22°C° 0 mm 5 mps 747 mmHg 61%
    18:00 +20°C° 0 mm 5 mps 747 mmHg 66%
    19:00 +19°C° 0 mm 5 mps 748 mmHg 71%
    20:00 +17°C° 0 mm 5 mps 748 mmHg 76%
    21:00 +16°C° 0 mm 5 mps 748 mmHg 80%
    22:00 +16°C° 0 mm 5 mps 749 mmHg 84%
    23:00 +15°C° 0 mm 5 mps 749 mmHg 88%
    Show more